YAMAL 401

Last updated on Mon Jun 22 2026 00:03:05 GMT+0000 (Coordinated Universal Time)

1 40345U 14082A 26172.70322819 .00000000 00000+0 00000+0 0 9999 2 40345 0.0100 7.1327 0001168 130.4118 115.4749 1.00263246 41968
UTC large
Height (km)
Speed (km/s)
/
Latitude / Longitude
Inclination (degrees)
Orbital Period (minutes)
Azimuth
Elevation
Range (km)
Doppler Factor

Next 0 passes for location: London (51.5072 / 0.1276)

No passes found over London.
YAMAL 401